Time,TemperatureF,DewpointF,PressureIn,WindDirection,WindDirectionDegrees,WindSpeedMPH,WindSpeedGustMPH,Humidity,HourlyPrecipIn,Conditions,Clouds,dailyrainin,SoftwareType,DateUTC
2013-03-10 00:01:00,38.0,31.0,30.15,South,169,6.0,10.0,75,0.00,,,0.00,,2013-03-10 05:01:00,
2013-03-10 00:11:00,38.0,31.0,30.15,South,169,6.0,10.0,75,0.00,,,0.00,,2013-03-10 05:11:00,
2013-03-10 00:22:00,39.0,31.0,30.15,South,184,3.0,13.0,73,0.00,,,0.00,,2013-03-10 05:22:00,
2013-03-10 00:32:00,39.0,31.0,30.15,SSE,157,2.0,10.0,73,0.00,,,0.00,,2013-03-10 05:32:00,
2013-03-10 00:42:00,39.0,30.0,30.14,SE,144,4.0,10.0,71,0.00,,,0.00,,2013-03-10 05:42:00,
2013-03-10 00:52:00,39.0,30.0,30.14,SE,144,4.0,10.0,71,0.00,,,0.00,,2013-03-10 05:52:00,
2013-03-10 01:01:00,40.0,31.0,30.14,South,169,0.0,11.0,70,0.00,,,0.00,,2013-03-10 06:01:00,
2013-03-10 01:11:00,40.0,31.0,30.14,South,169,0.0,11.0,70,0.00,,,0.00,,2013-03-10 06:11:00,
2013-03-10 01:22:00,40.0,30.0,30.14,SE,146,1.0,10.0,68,0.00,,,0.00,,2013-03-10 06:22:00,
2013-03-10 01:32:00,40.0,30.0,30.14,South,170,4.0,10.0,68,0.00,,,0.00,,2013-03-10 06:32:00,
2013-03-10 01:42:00,40.0,30.0,30.13,South,169,1.0,9.0,66,0.00,,,0.00,,2013-03-10 06:42:00,
2013-03-10 01:52:00,40.0,30.0,30.13,South,169,1.0,9.0,66,0.00,,,0.00,,2013-03-10 06:52:00,
2013-03-10 03:02:00,41.0,30.0,30.13,South,187,2.0,8.0,65,0.00,,,0.00,,2013-03-10 07:02:00,
2013-03-10 03:11:00,40.0,30.0,30.12,South,175,2.0,9.0,66,0.00,,,0.00,,2013-03-10 07:11:00,
2013-03-10 03:21:00,40.0,30.0,30.12,South,175,2.0,9.0,66,0.00,,,0.00,,2013-03-10 07:21:00,
2013-03-10 03:32:00,40.0,29.0,30.11,South,190,4.0,9.0,65,0.00,,,0.00,,2013-03-10 07:32:00,
2013-03-10 03:42:00,41.0,29.0,30.11,South,185,2.0,10.0,62,0.00,,,0.00,,2013-03-10 07:42:00,
2013-03-10 03:52:00,41.0,29.0,30.11,South,185,2.0,10.0,62,0.00,,,0.00,,2013-03-10 07:52:00,
2013-03-10 04:01:00,42.0,30.0,30.10,South,170,3.0,13.0,61,0.00,,,0.00,,2013-03-10 08:01:00,
2013-03-10 04:11:00,42.0,30.0,30.10,South,170,3.0,13.0,61,0.00,,,0.00,,2013-03-10 08:11:00,
2013-03-10 04:21:00,42.0,29.0,30.09,SSE,153,1.0,10.0,60,0.00,,,0.00,,2013-03-10 08:21:00,
2013-03-10 04:31:00,42.0,29.0,30.08,SSW,194,2.0,7.0,60,0.00,,,0.00,,2013-03-10 08:31:00,
2013-03-10 04:42:00,42.0,29.0,30.08,SSW,194,2.0,7.0,60,0.00,,,0.00,,2013-03-10 08:42:00,
2013-03-10 04:52:00,42.0,30.0,30.08,South,169,2.0,7.0,61,0.00,,,0.00,,2013-03-10 08:52:00,
2013-03-10 05:02:00,42.0,30.0,30.08,South,174,3.0,7.0,61,0.00,,,0.00,,2013-03-10 09:02:00,
2013-03-10 05:11:00,42.0,30.0,30.08,South,174,3.0,7.0,61,0.00,,,0.00,,2013-03-10 09:11:00,
2013-03-10 05:21:00,42.0,29.0,30.08,SSW,202,3.0,7.0,60,0.00,,,0.00,,2013-03-10 09:21:00,
2013-03-10 05:31:00,42.0,29.0,30.08,SSW,201,2.0,9.0,59,0.00,,,0.00,,2013-03-10 09:31:00,
2013-03-10 05:41:00,42.0,29.0,30.08,SSW,201,2.0,9.0,59,0.00,,,0.00,,2013-03-10 09:41:00,
2013-03-10 05:52:00,43.0,29.0,30.07,SSW,194,0.0,7.0,57,0.00,,,0.00,,2013-03-10 09:52:00,
2013-03-10 06:01:00,44.0,30.0,30.07,South,175,0.0,6.0,57,0.00,,,0.00,,2013-03-10 10:01:00,
2013-03-10 06:11:00,44.0,30.0,30.07,South,175,0.0,6.0,57,0.00,,,0.00,,2013-03-10 10:11:00,
2013-03-10 06:21:00,44.0,30.0,30.07,South,184,1.0,5.0,57,0.00,,,0.00,,2013-03-10 10:21:00,
2013-03-10 06:32:00,44.0,29.0,30.07,SSW,202,1.0,5.0,56,0.00,,,0.00,,2013-03-10 10:32:00,
2013-03-10 06:42:00,44.0,29.0,30.06,South,188,0.0,5.0,55,0.00,,,0.00,,2013-03-10 10:42:00,
2013-03-10 06:52:00,44.0,29.0,30.06,South,188,0.0,5.0,55,0.00,,,0.00,,2013-03-10 10:52:00,
2013-03-10 07:01:00,44.0,28.0,30.06,South,188,0.0,7.0,54,0.00,,,0.00,,2013-03-10 11:01:00,
2013-03-10 07:12:00,44.0,28.0,30.05,SSW,193,2.0,8.0,54,0.00,,,0.00,,2013-03-10 11:12:00,
2013-03-10 07:21:00,44.0,28.0,30.05,SSW,193,2.0,8.0,54,0.00,,,0.00,,2013-03-10 11:21:00,
2013-03-10 07:32:00,44.0,28.0,30.05,South,182,0.0,5.0,54,0.00,,,0.00,,2013-03-10 11:32:00,
2013-03-10 07:42:00,44.0,28.0,30.05,South,182,0.0,5.0,54,0.00,,,0.00,,2013-03-10 11:42:00,
2013-03-10 07:52:00,44.0,28.0,30.05,South,175,0.0,5.0,54,0.00,,,0.00,,2013-03-10 11:52:00,
2013-03-10 08:01:00,45.0,28.0,30.05,South,186,3.0,9.0,52,0.00,,,0.00,,2013-03-10 12:01:00,
2013-03-10 08:11:00,45.0,28.0,30.05,South,186,3.0,9.0,52,0.00,,,0.00,,2013-03-10 12:11:00,
2013-03-10 08:21:00,44.0,28.0,30.05,South,181,1.0,7.0,54,0.00,,,0.00,,2013-03-10 12:21:00,
2013-03-10 08:31:00,44.0,28.0,30.04,SW,225,2.0,6.0,53,0.00,,,0.00,,2013-03-10 12:31:00,
2013-03-10 08:42:00,44.0,28.0,30.04,SW,225,2.0,6.0,53,0.00,,,0.00,,2013-03-10 12:42:00,
2013-03-10 08:52:00,45.0,28.0,30.04,SSW,192,2.0,7.0,52,0.00,,,0.00,,2013-03-10 12:52:00,
2013-03-10 09:01:00,46.0,28.0,30.04,SSW,203,4.0,9.0,50,0.00,,,0.00,,2013-03-10 13:01:00,
2013-03-10 09:11:00,46.0,28.0,30.04,SSW,203,4.0,9.0,50,0.00,,,0.00,,2013-03-10 13:11:00,
2013-03-10 09:21:00,47.0,29.0,30.04,SSW,209,5.0,10.0,49,0.00,,,0.00,,2013-03-10 13:21:00,
2013-03-10 09:31:00,48.0,29.0,30.04,SSW,207,0.0,9.0,47,0.00,,,0.00,,2013-03-10 13:31:00,
2013-03-10 09:41:00,48.0,29.0,30.04,SSW,207,0.0,9.0,47,0.00,,,0.00,,2013-03-10 13:41:00,
2013-03-10 09:52:00,50.0,29.0,30.04,SSW,201,2.0,11.0,45,0.00,,,0.00,,2013-03-10 13:52:00,
2013-03-10 10:02:00,51.0,30.0,30.05,SSW,202,3.0,8.0,45,0.00,,,0.00,,2013-03-10 14:02:00,
2013-03-10 10:11:00,51.0,30.0,30.05,SSW,202,3.0,8.0,45,0.00,,,0.00,,2013-03-10 14:11:00,
2013-03-10 10:22:00,51.0,30.0,30.05,South,184,3.0,9.0,45,0.00,,,0.00,,2013-03-10 14:22:00,
2013-03-10 10:32:00,51.0,30.0,30.05,SSW,211,6.0,12.0,44,0.00,,,0.00,,2013-03-10 14:32:00,
2013-03-10 10:42:00,51.0,30.0,30.05,SSW,211,6.0,12.0,44,0.00,,,0.00,,2013-03-10 14:42:00,
2013-03-10 10:52:00,51.0,30.0,30.04,SSW,210,6.0,14.0,44,0.00,,,0.00,,2013-03-10 14:52:00,
2013-03-10 11:01:00,51.0,30.0,30.03,South,188,5.0,14.0,45,0.00,,,0.00,,2013-03-10 15:01:00,
2013-03-10 11:11:00,51.0,30.0,30.03,South,188,5.0,14.0,45,0.00,,,0.00,,2013-03-10 15:11:00,
2013-03-10 11:21:00,54.0,33.0,30.03,WSW,238,3.0,15.0,44,0.00,,,0.00,,2013-03-10 15:21:00,
2013-03-10 11:32:00,55.0,32.0,30.02,SW,225,7.0,13.0,42,0.00,,,0.00,,2013-03-10 15:32:00,
2013-03-10 11:42:00,55.0,32.0,30.02,SW,225,7.0,13.0,42,0.00,,,0.00,,2013-03-10 15:42:00,
2013-03-10 11:52:00,56.0,33.0,30.02,SW,230,9.0,18.0,42,0.00,,,0.00,,2013-03-10 15:52:00,
2013-03-10 12:01:00,57.0,33.0,30.03,SSE,148,7.0,21.0,40,0.00,,,0.00,,2013-03-10 16:01:00,
2013-03-10 12:12:00,57.0,33.0,30.03,SSE,148,7.0,21.0,40,0.00,,,0.00,,2013-03-10 16:12:00,
2013-03-10 12:21:00,57.0,34.0,30.03,SSW,208,6.0,18.0,41,0.00,,,0.00,,2013-03-10 16:21:00,
2013-03-10 12:32:00,57.0,33.0,30.03,SSW,196,9.0,16.0,40,0.00,,,0.00,,2013-03-10 16:32:00,
2013-03-10 12:41:00,57.0,33.0,30.03,SSW,196,9.0,16.0,40,0.00,,,0.00,,2013-03-10 16:41:00,
2013-03-10 12:52:00,58.0,34.0,30.02,SW,217,9.0,16.0,40,0.00,,,0.00,,2013-03-10 16:52:00,
2013-03-10 13:01:00,59.0,33.0,30.01,SW,215,14.0,19.0,37,0.00,,,0.00,,2013-03-10 17:01:00,
2013-03-10 13:11:00,59.0,33.0,30.01,SW,215,14.0,19.0,37,0.00,,,0.00,,2013-03-10 17:11:00,
2013-03-10 13:21:00,59.0,35.0,30.01,SSW,198,7.0,18.0,40,0.00,,,0.00,,2013-03-10 17:21:00,
2013-03-10 13:31:00,60.0,35.0,30.01,South,186,7.0,17.0,39,0.00,,,0.00,,2013-03-10 17:31:00,
2013-03-10 13:41:00,60.0,35.0,30.01,South,186,7.0,17.0,39,0.00,,,0.00,,2013-03-10 17:41:00,
2013-03-10 13:51:00,59.0,33.0,30.01,SSW,201,8.0,17.0,38,0.00,,,0.00,,2013-03-10 17:51:00,
2013-03-10 14:01:00,60.0,35.0,30.00,SW,227,9.0,16.0,39,0.00,,,0.00,,2013-03-10 18:01:00,
2013-03-10 14:11:00,60.0,35.0,30.00,SW,227,9.0,16.0,39,0.00,,,0.00,,2013-03-10 18:11:00,
2013-03-10 14:22:00,60.0,36.0,29.99,WSW,246,4.0,12.0,41,0.00,,,0.00,,2013-03-10 18:22:00,
2013-03-10 14:32:00,62.0,36.0,29.98,SSW,203,15.0,21.0,38,0.00,,,0.00,,2013-03-10 18:32:00,
2013-03-10 14:42:00,62.0,36.0,29.98,SSW,203,15.0,21.0,38,0.00,,,0.00,,2013-03-10 18:42:00,
2013-03-10 14:52:00,63.0,38.0,29.96,South,185,11.0,19.0,39,0.00,,,0.00,,2013-03-10 18:52:00,
2013-03-10 15:01:00,63.0,37.0,29.96,SSW,198,7.0,21.0,38,0.00,,,0.00,,2013-03-10 19:01:00,
2013-03-10 15:11:00,63.0,37.0,29.96,SSW,198,7.0,21.0,38,0.00,,,0.00,,2013-03-10 19:11:00,
2013-03-10 15:21:00,63.0,36.0,29.96,SW,215,8.0,20.0,37,0.00,,,0.00,,2013-03-10 19:21:00,
2013-03-10 15:32:00,63.0,37.0,29.95,South,177,7.0,14.0,38,0.00,,,0.00,,2013-03-10 19:32:00,
2013-03-10 15:42:00,63.0,37.0,29.95,South,177,7.0,14.0,38,0.00,,,0.00,,2013-03-10 19:42:00,
2013-03-10 15:53:00,64.0,37.0,29.94,SSW,208,6.0,15.0,37,0.00,,,0.00,,2013-03-10 19:53:00,
2013-03-10 16:02:00,64.0,38.0,29.94,SSW,193,8.0,17.0,38,0.00,,,0.00,,2013-03-10 20:02:00,
2013-03-10 16:12:00,64.0,38.0,29.94,SSW,193,8.0,17.0,38,0.00,,,0.00,,2013-03-10 20:12:00,
2013-03-10 16:22:00,65.0,39.0,29.92,SSE,149,7.0,15.0,38,0.00,,,0.00,,2013-03-10 20:22:00,
2013-03-10 16:32:00,65.0,39.0,29.93,WSW,238,5.0,19.0,38,0.00,,,0.00,,2013-03-10 20:32:00,
2013-03-10 16:43:00,65.0,39.0,29.93,WSW,238,5.0,19.0,38,0.00,,,0.00,,2013-03-10 20:43:00,
2013-03-10 16:53:00,65.0,39.0,29.93,WSW,252,6.0,14.0,38,0.00,,,0.00,,2013-03-10 20:53:00,
2013-03-10 17:02:00,65.0,39.0,29.94,WSW,254,1.0,10.0,38,0.00,,,0.00,,2013-03-10 21:02:00,
2013-03-10 17:12:00,65.0,39.0,29.94,WSW,254,1.0,10.0,38,0.00,,,0.00,,2013-03-10 21:12:00,
2013-03-10 17:23:00,64.0,38.0,29.93,WSW,253,2.0,7.0,38,0.00,,,0.00,,2013-03-10 21:23:00,
2013-03-10 17:32:00,64.0,39.0,29.94,WSW,243,0.0,7.0,40,0.00,,,0.00,,2013-03-10 21:32:00,
2013-03-10 17:42:00,64.0,39.0,29.94,WSW,243,0.0,7.0,40,0.00,,,0.00,,2013-03-10 21:42:00,
2013-03-10 17:53:00,63.0,38.0,29.94,SW,228,1.0,5.0,40,0.00,,,0.00,,2013-03-10 21:53:00,
2013-03-10 18:02:00,63.0,39.0,29.93,SW,227,2.0,3.0,41,0.00,,,0.00,,2013-03-10 22:02:00,
2013-03-10 18:12:00,63.0,39.0,29.93,SW,227,2.0,3.0,41,0.00,,,0.00,,2013-03-10 22:12:00,
2013-03-10 18:22:00,63.0,40.0,29.92,SW,232,0.0,2.0,42,0.00,,,0.00,,2013-03-10 22:22:00,
2013-03-10 18:32:00,63.0,41.0,29.92,SW,232,0.0,0.0,44,0.00,,,0.00,,2013-03-10 22:32:00,
2013-03-10 18:43:00,63.0,41.0,29.92,SW,232,0.0,0.0,44,0.00,,,0.00,,2013-03-10 22:43:00,
2013-03-10 18:53:00,61.0,42.0,29.94,SW,232,0.0,0.0,50,0.00,,,0.00,,2013-03-10 22:53:00,
2013-03-10 19:03:00,60.0,43.0,29.94,SW,232,0.0,0.0,54,0.00,,,0.00,,2013-03-10 23:03:00,
2013-03-10 19:12:00,58.0,42.0,29.95,SSW,213,0.0,0.0,55,0.00,,,0.00,,2013-03-10 23:12:00,
2013-03-10 19:23:00,58.0,42.0,29.95,SSW,213,0.0,0.0,55,0.00,,,0.00,,2013-03-10 23:23:00,
2013-03-10 19:33:00,57.0,41.0,29.95,SSW,213,0.0,0.0,55,0.00,,,0.00,,2013-03-10 23:33:00,
2013-03-10 19:42:00,57.0,41.0,29.95,SSW,213,0.0,0.0,55,0.00,,,0.00,,2013-03-10 23:42:00,
2013-03-10 19:52:00,57.0,39.0,29.94,SSW,195,0.0,4.0,51,0.00,,,0.00,,2013-03-10 23:52:00,
2013-03-10 20:02:00,57.0,39.0,29.94,South,190,0.0,2.0,50,0.00,,,0.00,,2013-03-11 00:02:00,
2013-03-10 20:13:00,57.0,39.0,29.94,South,190,0.0,2.0,50,0.00,,,0.00,,2013-03-11 00:13:00,
2013-03-10 20:23:00,56.0,39.0,29.95,South,170,1.0,4.0,53,0.00,,,0.00,,2013-03-11 00:23:00,
2013-03-10 20:33:00,54.0,38.0,29.94,South,175,1.0,2.0,55,0.00,,,0.00,,2013-03-11 00:33:00,
2013-03-10 20:43:00,54.0,38.0,29.94,South,175,1.0,2.0,55,0.00,,,0.00,,2013-03-11 00:43:00,
2013-03-10 20:53:00,56.0,37.0,29.94,SSW,192,3.0,5.0,49,0.00,,,0.00,,2013-03-11 00:53:00,
2013-03-10 21:03:00,57.0,37.0,29.94,South,169,3.0,6.0,47,0.00,,,0.00,,2013-03-11 01:03:00,
2013-03-10 21:13:00,57.0,37.0,29.94,South,169,3.0,6.0,47,0.00,,,0.00,,2013-03-11 01:13:00,
2013-03-10 21:23:00,58.0,36.0,29.95,SSW,203,3.0,10.0,44,0.00,,,0.00,,2013-03-11 01:23:00,
2013-03-10 21:32:00,58.0,36.0,29.95,South,178,2.0,8.0,44,0.00,,,0.00,,2013-03-11 01:32:00,
2013-03-10 21:43:00,58.0,36.0,29.95,South,178,2.0,8.0,44,0.00,,,0.00,,2013-03-11 01:43:00,
2013-03-10 21:53:00,56.0,36.0,29.95,SSW,192,4.0,9.0,46,0.00,,,0.00,,2013-03-11 01:53:00,
2013-03-10 22:02:00,57.0,35.0,29.96,SSE,148,3.0,9.0,44,0.00,,,0.00,,2013-03-11 02:02:00,
2013-03-10 22:12:00,57.0,35.0,29.96,SSE,148,3.0,9.0,44,0.00,,,0.00,,2013-03-11 02:12:00,
2013-03-10 22:23:00,57.0,35.0,29.95,SW,219,7.0,12.0,43,0.00,,,0.00,,2013-03-11 02:23:00,
2013-03-10 22:32:00,58.0,35.0,29.95,South,182,5.0,15.0,42,0.00,,,0.00,,2013-03-11 02:32:00,
2013-03-10 22:42:00,58.0,35.0,29.95,South,182,5.0,15.0,42,0.00,,,0.00,,2013-03-11 02:42:00,
2013-03-10 22:53:00,58.0,35.0,29.93,SSW,211,7.0,15.0,42,0.00,,,0.00,,2013-03-11 02:53:00,
2013-03-10 23:02:00,58.0,35.0,29.93,SSW,194,8.0,12.0,42,0.00,,,0.00,,2013-03-11 03:02:00,
2013-03-10 23:12:00,58.0,35.0,29.93,SSW,194,8.0,12.0,42,0.00,,,0.00,,2013-03-11 03:12:00,
2013-03-10 23:22:00,57.0,35.0,29.92,South,184,4.0,11.0,43,0.00,,,0.00,,2013-03-11 03:22:00,
2013-03-10 23:32:00,57.0,35.0,29.92,South,174,5.0,11.0,43,0.00,,,0.00,,2013-03-11 03:32:00,
2013-03-10 23:42:00,57.0,35.0,29.92,South,174,5.0,11.0,43,0.00,,,0.00,,2013-03-11 03:42:00,
2013-03-10 23:53:00,56.0,34.0,29.91,SSE,148,3.0,12.0,43,0.00,,,0.00,,2013-03-11 03:53:00,